Previsão horária em Alife

Hoje, 3 Dezembro, Quinta-feira

Tempo Temperatura Precipitação Vento Pressão Humidade
00:00 +11°C° 1.5 mm 3 m/s 733 mmHg 94%
01:00 +11°C° 0 mm 3 m/s 733 mmHg 95%
02:00 +12°C° 0.2 mm 2 m/s 733 mmHg 94%
03:00 +11°C° 0.2 mm 1 m/s 733 mmHg 92%
04:00 +11°C° 0.2 mm 1 m/s 733 mmHg 91%
05:00 +11°C° 0.4 mm 1 m/s 733 mmHg 91%
06:00 +11°C° 0.4 mm 1 m/s 733 mmHg 92%
07:00 +10°C° 0 mm 0 m/s 733 mmHg 92%
08:00 +11°C° 1.1 mm 1 m/s 733 mmHg 92%
09:00 +11°C° 1.1 mm 1 m/s 733 mmHg 91%
10:00 +11°C° 1.1 mm 1 m/s 733 mmHg 91%
11:00 +11°C° 1.4 mm 1 m/s 732 mmHg 91%
12:00 +10°C° 1.4 mm 0 m/s 732 mmHg 91%
13:00 +10°C° 1.4 mm 0 m/s 732 mmHg 91%
14:00 +10°C° 0.9 mm 0 m/s 732 mmHg 91%
15:00 +10°C° 0.9 mm 0 m/s 732 mmHg 91%
16:00 +11°C° 0.9 mm 1 m/s 732 mmHg 91%
17:00 +9°C° 0.1 mm 0 m/s 732 mmHg 91%
18:00 +9°C° 0.1 mm 0 m/s 732 mmHg 91%
19:00 +9°C° 0.1 mm 0 m/s 732 mmHg 92%
20:00 +8°C° 0.1 mm 0 m/s 732 mmHg 92%
21:00 +8°C° 0.1 mm 0 m/s 732 mmHg 92%
22:00 +9°C° 0.1 mm 1 m/s 732 mmHg 92%
23:00 +9°C° 0 mm 1 m/s 732 mmHg 92%

Amanhã, 4 Dezembro, Sexta-feira

Tempo Temperatura Precipitação Vento Pressão Humidade
00:00 +8°C° 0 mm 1 m/s 732 mmHg 91%
01:00 +8°C° 0 mm 1 m/s 732 mmHg 91%
02:00 +8°C° 0 mm 1 m/s 732 mmHg 91%
03:00 +7°C° 0 mm 1 m/s 732 mmHg 91%
04:00 +6°C° 0 mm 0 m/s 732 mmHg 91%
05:00 +7°C° 0 mm 1 m/s 732 mmHg 91%
06:00 +7°C° 0 mm 1 m/s 732 mmHg 91%
07:00 +7°C° 0 mm 1 m/s 732 mmHg 91%
08:00 +8°C° 0 mm 1 m/s 733 mmHg 88%
09:00 +9°C° 0 mm 1 m/s 733 mmHg 84%
10:00 +11°C° 0 mm 1 m/s 733 mmHg 80%
11:00 +10°C° 0 mm 2 m/s 733 mmHg 77%
12:00 +11°C° 0 mm 3 m/s 732 mmHg 75%
13:00 +12°C° 0 mm 3 m/s 732 mmHg 72%
14:00 +11°C° 0 mm 3 m/s 732 mmHg 75%
15:00 +11°C° 0 mm 3 m/s 732 mmHg 77%
16:00 +10°C° 0 mm 2 m/s 732 mmHg 79%
17:00 +10°C° 0.1 mm 2 m/s 732 mmHg 80%
18:00 +10°C° 0.1 mm 2 m/s 732 mmHg 82%
19:00 +10°C° 0.1 mm 2 m/s 732 mmHg 83%
20:00 +10°C° 0.2 mm 3 m/s 732 mmHg 84%
21:00 +10°C° 0.2 mm 3 m/s 732 mmHg 85%
22:00 +10°C° 0.2 mm 3 m/s 732 mmHg 87%
23:00 +10°C° 0.2 mm 3 m/s 732 mmHg 87%

Depois de amanhã, 5 Dezembro, Sábado

Tempo Temperatura Precipitação Vento Pressão Humidade
00:00 +10°C° 0.2 mm 3 m/s 732 mmHg 88%
01:00 +10°C° 0.2 mm 3 m/s 732 mmHg 89%
02:00 +10°C° 0.2 mm 3 m/s 731 mmHg 89%
03:00 +10°C° 0.2 mm 3 m/s 731 mmHg 89%
04:00 +10°C° 0.2 mm 3 m/s 731 mmHg 89%
05:00 +10°C° 0.3 mm 3 m/s 731 mmHg 90%
06:00 +10°C° 0.3 mm 3 m/s 731 mmHg 90%
07:00 +10°C° 0.3 mm 2 m/s 731 mmHg 91%
08:00 +11°C° 0.4 mm 3 m/s 731 mmHg 89%
09:00 +12°C° 0.4 mm 3 m/s 731 mmHg 87%
10:00 +12°C° 0.4 mm 4 m/s 731 mmHg 85%
11:00 +13°C° 0.4 mm 5 m/s 731 mmHg 81%
12:00 +14°C° 0.4 mm 6 m/s 731 mmHg 78%
13:00 +15°C° 0.4 mm 6 m/s 730 mmHg 75%
14:00 +14°C° 0.5 mm 6 m/s 730 mmHg 77%
15:00 +14°C° 0.5 mm 5 m/s 730 mmHg 80%
16:00 +14°C° 0.5 mm 5 m/s 730 mmHg 82%
17:00 +13°C° 0.8 mm 4 m/s 730 mmHg 84%
18:00 +13°C° 0.8 mm 4 m/s 730 mmHg 87%
19:00 +12°C° 0.8 mm 4 m/s 730 mmHg 89%
20:00 +12°C° 0.7 mm 4 m/s 731 mmHg 89%
21:00 +12°C° 0.7 mm 3 m/s 731 mmHg 88%
22:00 +12°C° 0.7 mm 3 m/s 731 mmHg 88%
23:00 +12°C° 0.3 mm 3 m/s 730 mmHg 88%

6 Dezembro, Domingo

Tempo Temperatura Precipitação Vento Pressão Humidade
00:00 +11°C° 0.3 mm 3 m/s 730 mmHg 88%
01:00 +12°C° 0.3 mm 2 m/s 729 mmHg 88%
02:00 +11°C° 1.8 mm 3 m/s 729 mmHg 90%
03:00 +11°C° 1.8 mm 3 m/s 728 mmHg 91%
04:00 +11°C° 1.8 mm 3 m/s 727 mmHg 93%
05:00 +11°C° 7.1 mm 3 m/s 726 mmHg 94%
06:00 +11°C° 7.1 mm 3 m/s 726 mmHg 95%
07:00 +11°C° 7.1 mm 3 m/s 725 mmHg 96%
08:00 +12°C° 7.2 mm 2 m/s 725 mmHg 95%
09:00 +10°C° 7.2 mm 2 m/s 725 mmHg 95%
10:00 +10°C° 7.2 mm 2 m/s 725 mmHg 95%
11:00 +10°C° 2.7 mm 2 m/s 724 mmHg 93%
12:00 +9°C° 2.7 mm 2 m/s 724 mmHg 92%
13:00 +9°C° 2.7 mm 2 m/s 724 mmHg 91%
14:00 +9°C° 0.7 mm 2 m/s 724 mmHg 91%
15:00 +9°C° 0.7 mm 2 m/s 725 mmHg 91%
16:00 +9°C° 0.7 mm 2 m/s 725 mmHg 92%
17:00 +9°C° 1.4 mm 2 m/s 726 mmHg 92%
18:00 +9°C° 1.4 mm 3 m/s 726 mmHg 92%
19:00 +9°C° 1.4 mm 3 m/s 727 mmHg 92%
20:00 +8°C° 0.6 mm 3 m/s 728 mmHg 90%
21:00 +8°C° 0.6 mm 3 m/s 729 mmHg 88%
22:00 +7°C° 0.6 mm 4 m/s 730 mmHg 86%
23:00 +7°C° 0 mm 3 m/s 730 mmHg 86%

7 Dezembro, Segunda-feira

Tempo Temperatura Precipitação Vento Pressão Humidade
00:00 +7°C° 0 mm 2 m/s 730 mmHg 87%
01:00 +7°C° 0 mm 2 m/s 731 mmHg 87%
02:00 +7°C° 0 mm 2 m/s 731 mmHg 85%
03:00 +8°C° 0 mm 2 m/s 731 mmHg 84%
04:00 +9°C° 0 mm 1 m/s 731 mmHg 82%
05:00 +9°C° 0.2 mm 1 m/s 731 mmHg 84%
06:00 +9°C° 0.2 mm 1 m/s 731 mmHg 85%
07:00 +8°C° 0.2 mm 1 m/s 732 mmHg 87%
08:00 +9°C° 0.2 mm 1 m/s 732 mmHg 84%
09:00 +10°C° 0.2 mm 1 m/s 732 mmHg 82%
10:00 +10°C° 0.2 mm 2 m/s 732 mmHg 80%
11:00 +9°C° 0.8 mm 2 m/s 732 mmHg 82%
12:00 +9°C° 0.8 mm 2 m/s 732 mmHg 85%
13:00 +9°C° 0.8 mm 2 m/s 731 mmHg 88%
14:00 +9°C° 0.5 mm 2 m/s 731 mmHg 87%
15:00 +9°C° 0.5 mm 2 m/s 732 mmHg 87%
16:00 +9°C° 0.5 mm 2 m/s 732 mmHg 87%
17:00 +9°C° 0.5 mm 2 m/s 732 mmHg 88%
18:00 +8°C° 0.5 mm 2 m/s 732 mmHg 88%
19:00 +8°C° 0.5 mm 2 m/s 732 mmHg 89%
20:00 +8°C° 0.1 mm 3 m/s 733 mmHg 88%
21:00 +7°C° 0.1 mm 3 m/s 733 mmHg 88%
22:00 +7°C° 0.1 mm 3 m/s 733 mmHg 88%
23:00 +5°C° 0.2 mm 3 m/s 734 mmHg 88%

8 Dezembro, Terça-feira

Tempo Temperatura Precipitação Vento Pressão Humidade
00:00 +5°C° 0.2 mm 3 m/s 734 mmHg 88%
01:00 +5°C° 0.2 mm 3 m/s 734 mmHg 88%
02:00 +5°C° 0.2 mm 3 m/s 734 mmHg 88%
03:00 +5°C° 0.2 mm 3 m/s 734 mmHg 88%
04:00 +6°C° 0.2 mm 2 m/s 734 mmHg 88%
05:00 +6°C° 0.1 mm 2 m/s 734 mmHg 88%
06:00 +6°C° 0.1 mm 2 m/s 734 mmHg 88%
07:00 +6°C° 0.1 mm 1 m/s 734 mmHg 89%
08:00 +7°C° 0 mm 1 m/s 734 mmHg 86%
09:00 +8°C° 0 mm 1 m/s 735 mmHg 84%
10:00 +9°C° 0 mm 1 m/s 735 mmHg 82%
11:00 +9°C° 1.6 mm 1 m/s 734 mmHg 86%
12:00 +9°C° 1.6 mm 1 m/s 734 mmHg 91%
13:00 +9°C° 1.6 mm 1 m/s 733 mmHg 95%
14:00 +8°C° 3.4 mm 2 m/s 733 mmHg 95%
15:00 +8°C° 3.4 mm 2 m/s 732 mmHg 95%
16:00 +8°C° 3.4 mm 3 m/s 732 mmHg 96%
17:00 +8°C° 4.6 mm 3 m/s 731 mmHg 96%
18:00 +9°C° 4.6 mm 3 m/s 731 mmHg 96%
19:00 +9°C° 4.6 mm 3 m/s 730 mmHg 97%
20:00 +9°C° 3.8 mm 3 m/s 730 mmHg 96%
21:00 +9°C° 3.8 mm 3 m/s 729 mmHg 94%
22:00 +10°C° 3.8 mm 3 m/s 729 mmHg 93%
23:00 +10°C° 1.4 mm 4 m/s 729 mmHg 93%
Mostrar mais